Regional Weather Roundup
Issued by NWS

Home | Current Version | Previous Version | Graphics & Text | Print | Product List | Glossary On
Versions: 1 2 3 4 5 6 7 8 9 10 11 12 13 14 15 16 17 18 19 20 21 22 23 24 25 26 27 28 29 30 31 32 33 34 35 36 37 38 39 40 41 42 43 44 45 46 47 48 49 50
000
ASUS43 KIND 202009
RWRIN

WEATHER ROUNDUP FOR INDIANA
NATIONAL WEATHER SERVICE INDIANAPOLIS IN
400 PM EDT SUN APR 20 2014

NOTE: "FAIR" INDICATES FEW OR NO CLOUDS BELOW 12,000 FEET WITH NO
SIGNIFICANT WEATHER AND/OR OBSTRUCTIONS TO VISIBILITY.

* - STATION DOES NOT REPORT WEATHER SUCH AS PRECIPITATION OR FOG.

+ - STATION NOT QUALITY CONTROLLED BY THE NATIONAL WEATHER SERVICE.
    USE DATA WITH CAUTION...ESPECIALLY DEWPOINT AND RELATIVE
    HUMIDITY OBSERVATIONS.

INZ001>003-010>013-019-020-202100-
NORTHWEST INDIANA

CITY           SKY/WX    TMP DP  RH WIND       PRES   REMARKS
GARY /AIRPORT/ PTSUNNY   77  36  22 S14       30.13F
LA PORTE +     MOSUNNY   73  34  24 SW8       30.16F
MICHIGAN CITY+ MOSUNNY   73  32  21 S8        30.14F
MONTICELLO +   PTSUNNY   71  39  30 CALM      30.16F
RENSSELAER +   PTSUNNY   72  32  23 SW6       30.15F
VALPARAISO     MOSUNNY   73  35  25 SW9       30.15F

$$

LMZ046-743>745-202100-
SOUTHERN LAKE MICHIGAN

STATION/POSITION TIME  TEMP WIND        PRES
                       AIR  DIR/SP/G
                 (UTC) (F)  (DEG/KT/KT) (MB)
MICHIGAN CITY    2000        30/  7/  8   N/A

$$

INZ004-005-014>016-021>024-202100-
NORTH CENTRAL INDIANA

CITY           SKY/WX    TMP DP  RH WIND       PRES   REMARKS
GOSHEN         SUNNY     73  32  22 S7        30.17F
LOGANSPORT +   PTSUNNY   70  32  24 SW7       30.17F
PERU/GRISSOM   PTSUNNY   74  34  23 SW6       30.16F
ROCHESTER +    MOSUNNY   73  30  20 SE6       30.17F
SOUTH BEND     MOSUNNY   73  33  23 VRB3      30.17F
WARSAW +       MOSUNNY   72  32  23 S5        30.17F

$$

INZ006>009-017-018-025>027-202100-
NORTHEAST INDIANA

CITY           SKY/WX    TMP DP  RH WIND       PRES   REMARKS
ANGOLA *+      SUNNY     72  30  21 S10       30.18F
AUBURN +       SUNNY     72  28  20 CALM      30.18F
FORT WAYNE     PTSUNNY   73  33  23 S9        30.18F

$$

INZ028-029-035-036-043>045-051>053-202100-
WEST CENTRAL INDIANA

CITY           SKY/WX    TMP DP  RH WIND       PRES   REMARKS
GREENCASTLE +  MOSUNNY   72  36  26 SW3       30.16F
LAFAYETTE      MOSUNNY   74  36  25 NW6       30.14F
TERRE HAUTE    PTSUNNY   72  41  32 MISG      30.16F

$$

INZ030>032-037>040-046>048-054>057-064-065-202100-
CENTRAL INDIANA

CITY           SKY/WX    TMP DP  RH WIND       PRES   REMARKS
CP ATTERBURY + SUNNY     73  36  25 SE10G16   30.16F
COLUMBUS       SUNNY     73  37  27 S7        30.17F
GREENWOOD *+   SUNNY     73  39  29 SE6       30.17
INDIANAPOLIS   MOSUNNY   73  33  23 VRB3      30.16F
-EAGLE CREEK   SUNNY     74  36  25 NE3       30.16F
KOKOMO *+        N/A     72  32  23 SW5       30.17F
MARION +       PTSUNNY   72  31  22 SW9       30.18F
MT COMFORT *+  MOSUNNY   75  36  23 SW7       30.17F
SHELBYVILLE    SUNNY     76  37  24 S9        30.16F
ZIONSVILLE +   MOSUNNY   74  25  16 S5        30.17F

$$

INZ033-034-041-042-049-050-058-059-202100-
EAST CENTRAL INDIANA

CITY           SKY/WX    TMP DP  RH WIND       PRES   REMARKS
MUNCIE         MOSUNNY   73  36  25 W9        30.17F

$$

INZ060-061-067>069-081>083-085>088-202100-
SOUTHWEST INDIANA

CITY           SKY/WX    TMP DP  RH WIND       PRES   REMARKS
EVANSVILLE     CLOUDY    75  36  24 VRB3      30.16F
HUNTINGBURG *+ PTSUNNY   73  36  25 NW3       30.16F
WASHINGTON +   PTSUNNY   73  37  27 CALM      30.15F

$$

INZ062-063-066-070>080-084-089>092-202100-
SOUTH CENTRAL AND SOUTHEAST INDIANA

CITY           SKY/WX    TMP DP  RH WIND       PRES   REMARKS
BLOOMINGTON    SUNNY     75  26  16 SE6       30.15F

$$




USA.gov is the U.S. government's official web portal to all federal, state and local government web resources and services.